Weather in Pecatu

Indonesia     8°49′09″S   115°08′18″E
temp.,
°C
wind,
m/s
gust,
m/s
humid.,
%
clouds,
%
prec.,
mm/h
press.,
hPa
HPBL,
m
12 may, wed
wed1223:00+28ese557587 0.2 1010704
02:00+28se667489 0.4 1009683
05:00+28ese777529 0.3 1009756
08:00+28ese777325 0.4 1011832
11:00+28ese776799 0.0 1010969
14:00+28se5669100 0.0 1008987
17:00+28se666785 0.0 10081006
20:00+28ese777014 0.0 10091047
13 may, thu
thu1323:00+28ese677241 0.0 10091050
02:00+28ese777695 0.3 1008830
05:00+27e5678100 0.3 1008794
08:00+28e577891 0.7 1009803
11:00+28ese887397 0.3 1009936
14:00+28ese9976100 0.3 1007806
17:00+28ese89775 0.0 1007693
20:00+28ese887887 0.0 1008868
14 may, fri
fri1423:00+28ese8879100 0.2 1009846
02:00+28ese8980100 0.6 1008881
05:00+28ese8879100 0.7 1008928
08:00+28ese91079100 1.1 1009957
11:00+28ese9107582 0.2 10091029
14:00+28ese897596 0.2 1007901
17:00+28se897998 0.0 1007895
20:00+28ese810805 0.3 1009956
15 may, sat
sat1523:00+28ese101078100 0.6 1009987
02:00+28ese997698 0.9 10081056
05:00+28ese897657 0.4 1007983
08:00+28ese9977100 0.8 1009975
11:00+28ese9107514 0.3 10081010
14:00+28ese89725 0.3 1006916
17:00+28ese887514 0.0 1006883
20:00+28ese88777 0.1 1008991
16 may, sun
sun1623:00+28ese887722 0.2 1009909
02:00+28ese888046 0.6 1007849
05:00+27ese888058 0.7 1007840
08:00+27ese887931 1.4 1009799
11:00+28ese99796 0.9 1009883
14:00+28ese89765 1.4 1006798
17:00+28se88776 0.1 1007873
20:00+28ese787954 0.4 1008899